EDT,Max TemperatureF,Mean TemperatureF,Min TemperatureF,Max Dew PointF,MeanDew PointF,Min DewpointF,Max Humidity, Mean Humidity, Min Humidity, Max Sea Level PressureIn, Mean Sea Level PressureIn, Min Sea Level PressureIn, Max VisibilityMiles, Mean VisibilityMiles, Min VisibilityMiles, Max Wind SpeedMPH, Mean Wind SpeedMPH, Max Gust SpeedMPH,PrecipitationIn, CloudCover, Events, WindDirDegrees
2012-8-1,82,73,64,69,64,63,100,81,56,29.96,29.88,29.83,10,10,6,9,2,,0.00,5,Rain,167
2012-8-2,84,75,66,71,67,64,100,84,56,29.89,29.86,29.82,10,7,1,9,1,,0.00,6,Rain-Thunderstorm,55
2012-8-3,91,78,64,68,65,62,100,85,42,30.11,29.93,29.88,10,6,1,6,1,,0.01,1,,246
2012-8-4,91,75,59,68,63,59,100,82,42,30.23,30.19,30.12,10,6,1,12,1,17,0.00,0,Rain,162
2012-8-5,88,74,60,71,64,59,100,89,57,30.23,30.15,29.95,10,6,0,9,1,18,0.01,5,Fog-Rain,210
2012-8-6,90,70,55,67,58,53,96,66,38,30.01,29.94,29.87,10,10,10,13,3,21,0.00,1,,276
2012-8-7,84,66,48,62,53,48,100,85,34,30.03,30.00,29.93,10,4,0,8,1,,0.00,1,Fog,188
2012-8-8,91,72,55,65,59,55,97,67,34,29.99,29.96,29.93,10,10,10,8,2,,0.01,1,,110
2012-8-9,86,70,57,68,62,57,100,89,56,29.98,29.95,29.90,10,5,0,15,1,25,1.33,3,Fog-Rain-Thunderstorm,37
2012-8-10,77,70,66,72,68,64,100,95,82,29.97,29.93,29.86,10,6,1,10,3,,1.84,8,Rain-Thunderstorm,109
2012-8-11,81,74,66,70,67,64,100,87,65,29.95,29.90,29.84,10,8,2,8,4,,0.27,8,Rain,24
2012-8-12,82,73,64,72,68,63,100,91,65,29.95,29.92,29.84,10,7,0,9,1,21,0.29,6,Fog-Rain-Thunderstorm,127
2012-8-13,84,72,62,70,64,61,100,86,51,29.93,29.90,29.87,10,7,1,7,1,,0.00,5,Rain,246
2012-8-14,84,72,59,70,64,58,100,80,47,29.95,29.92,29.88,10,10,6,6,0,,0.01,4,,193
2012-8-15,82,73,64,69,66,64,97,83,56,29.92,29.89,29.85,10,10,8,7,1,,0.01,5,Rain,145
2012-8-16,71,65,59,68,63,59,100,95,78,29.89,29.85,29.81,10,5,0,9,2,,1.59,5,Fog-Rain-Thunderstorm,336
2012-8-17,82,68,53,70,61,54,100,90,51,29.85,29.80,29.73,10,5,0,13,2,28,0.52,3,Fog-Rain-Thunderstorm,220
2012-8-18,80,68,55,65,61,55,97,78,52,29.92,29.85,29.80,10,10,9,6,1,,0.04,5,Rain,38
2012-8-19,78,64,50,61,54,50,100,82,46,30.00,29.94,29.91,10,7,0,9,1,,0.00,2,Fog-Rain,205
2012-8-20,81,62,46,59,52,46,100,86,39,29.94,29.92,29.84,10,6,0,5,1,,0.01,1,Fog,225
2012-8-21,81,67,53,60,57,52,100,73,38,30.10,29.98,29.90,10,10,10,7,1,,0.00,5,Rain,355
2012-8-22,82,63,46,58,50,46,100,84,35,30.16,30.12,30.08,10,5,0,8,1,17,0.01,1,Fog,200
2012-8-23,84,68,52,63,57,50,100,70,40,30.14,30.10,30.06,10,10,8,6,1,,0.04,2,,232
2012-8-24,84,70,57,64,61,57,100,77,49,30.25,30.18,30.13,10,9,4,8,1,,0.00,2,Rain,126
2012-8-25,82,68,55,64,58,55,100,89,50,30.35,30.30,30.25,10,5,0,9,1,,0.00,3,Fog-Rain,175
2012-8-26,86,70,55,67,61,54,97,75,48,30.34,30.29,30.22,10,10,10,7,2,,0.00,0,,181
2012-8-27,86,70,55,70,62,56,100,89,48,30.20,30.08,29.90,10,6,1,10,1,16,0.23,3,Rain,197
2012-8-28,82,69,57,69,62,48,100,74,49,29.89,29.80,29.72,10,10,5,13,4,20,0.10,3,Rain,304
2012-8-29,77,58,42,51,46,43,100,81,37,29.96,29.92,29.88,10,6,0,9,2,17,0.00,1,Fog,253
2012-8-30,80,62,46,55,52,45,96,62,43,29.98,29.92,29.88,10,10,10,12,3,20,0.00,0,Rain,226
2012-8-31,82,72,61,65,58,50,96,64,47,29.90,29.82,29.75,10,10,9,8,3,16,0.00,1,Rain,227